User: anonymous   Login
Location: Unspecified
(0.0000°N, 0.0000°E)
Time: 23:17:17
(UTC+00:00)
Language:

FLOCK 4Q 9 - Orbit

View from above orbital plane
View from above orbital plane
View from above satellite
View from above satellite

Ground track
Ground track

The orbit is defined by the following mean orbital elements,

1 58322U          26145.22820620 +.00000000 +00000-0 +52567-3 0 00001
2 58322  97.3864 233.2051 0006413 204.8884 155.2058 15.48553346    03
Epoch (UTC): 25 May 2026 05:28:37
Eccentricity: 0.0006413
inclination: 97.3864°
perigee height: 417 km
apogee height: 425 km
right ascension of ascending node: 233.2051°
argument of perigee: 204.8884°
revolutions per day: 15.48553346
mean anomaly at epoch: 155.2058°

The dashed part of the orbit path shows where the satellite is in the earth's shadow,  

DLR